Location: Pandora
(40.9481°N, 83.9611°W)
Time: 22:15:10
(UTC-04:00)

Nauka - Visible Passes

Search period start: 17 September 2021 00:00
Search period end: 27 September 2021 00:00
Orbit: 419 x 423 km, 51.6° (Epoch: 17 September)

Date Brightness Start Highest point End Pass type
(mag) Time Alt. Az. Time Alt. Az. Time Alt. Az.
17 Sep ? 20:13:18 10° SSW 20:16:26 37° SE 20:19:36 10° ENE visible
17 Sep ? 21:50:18 10° W 21:53:12 30° NNW 21:53:12 30° NNW visible
18 Sep ? 21:03:07 10° WSW 21:06:21 44° NNW 21:08:33 18° NE visible
19 Sep ? 20:16:04 10° WSW 20:19:25 70° NW 20:22:47 10° NE visible
19 Sep ? 21:54:20 10° WNW 21:56:45 18° NNW 21:56:46 18° NNW visible
20 Sep ? 21:06:56 10° WNW 21:09:39 22° NNW 21:11:51 13° NNE visible
21 Sep ? 20:19:36 10° W 20:22:36 29° NNW 20:25:37 10° NE visible
21 Sep ? 21:58:26 10° NW 21:59:50 14° NNW 21:59:50 14° NNW visible
22 Sep ? 21:11:03 10° NW 21:13:07 15° N 21:14:45 12° NNE visible
23 Sep ? 20:23:37 10° WNW 20:25:59 18° NNW 20:28:21 10° NNE visible
23 Sep ? 22:02:00 10° NNW 22:02:36 12° NNW 22:02:36 12° NNW visible
24 Sep ? 21:14:56 10° NNW 21:16:41 13° N 21:17:27 13° NNE visible
25 Sep ? 20:27:40 10° NW 20:29:29 14° N 20:31:20 10° NNE visible
25 Sep ? 22:04:56 10° NNW 22:05:15 11° NNW 22:05:15 11° NNW visible
26 Sep ? 21:18:06 10° NNW 21:20:03 15° N 21:20:03 15° N visible
